ECMWFNIL_sfc_dewp_087.txt.gz
Dewpoint
51 52 51 50 50 50 50 50 50 49 48 48 48 48 49 50 50 50 50 49 49 49 51 52 50 49 48 49 51 53 54 55 56 56 57 59 61 62 62 62 62 62
49 50 51 49 49 49 48 48 48 48 47 47 47 47 47 48 47 47 48 48 47 47 48 49 48 48 46 47 49 51 51 52 52 52 53 54 58 60 61 62 61 62
48 48 48 47 47 47 47 47 47 47 47 46 46 46 46 47 46 46 46 46 46 46 47 45 44 45 45 45 46 47 47 48 49 49 51 52 54 57 59 61 61 61
47 48 47 47 47 47 47 46 46 46 46 45 45 45 46 46 45 45 45 46 45 46 46 43 43 42 42 42 43 45 44 45 46 47 48 49 51 53 54 57 60 61
47 47 47 47 47 47 46 46 45 45 45 44 44 45 45 44 44 44 44 44 44 45 44 42 41 41 42 41 41 42 42 43 43 44 45 46 48 49 51 54 56 58
46 46 46 46 46 46 45 44 45 44 44 44 44 44 43 43 42 43 43 43 43 44 44 42 41 41 41 40 40 41 41 42 42 42 42 42 44 46 48 50 52 54
45 45 45 45 44 45 45 44 44 45 44 44 43 43 42 42 42 42 42 42 42 42 42 41 40 40 40 40 40 40 40 41 41 41 41 42 43 43 45 47 49 51
45 44 45 45 44 44 45 45 44 43 44 43 43 42 42 41 41 41 42 41 41 41 41 40 40 40 39 39 39 39 39 40 41 40 41 41 42 42 42 43 45 47
44 43 43 43 43 43 43 44 45 44 45 43 43 42 43 42 41 41 41 41 41 41 40 40 39 39 39 39 39 38 39 39 40 40 40 41 41 42 42 43 43 45
43 43 42 41 41 42 42 42 43 44 45 43 43 42 41 42 42 41 41 40 41 40 40 39 39 39 39 39 38 38 38 39 39 40 40 41 41 41 42 43 44 44
43 43 42 41 41 41 41 41 41 42 43 43 43 42 42 41 42 42 41 41 41 40 40 39 39 39 39 38 38 38 38 39 39 40 40 41 42 42 44 43 44 44
43 43 42 42 42 42 41 41 41 41 42 43 43 42 42 41 41 41 42 40 40 40 40 40 39 39 38 38 38 38 38 38 39 40 40 41 42 42 43 43 44 44
42 42 42 42 42 42 42 41 40 41 41 41 42 41 41 40 40 40 41 40 40 40 40 40 39 39 38 38 38 38 38 38 39 39 40 40 42 42 43 44 44 45
41 41 42 43 43 42 42 41 41 40 41 41 41 40 40 39 39 39 39 39 39 39 39 40 38 38 38 38 38 38 38 38 38 39 39 39 40 41 42 43 43 44
40 40 40 41 41 42 42 41 40 40 40 41 41 40 41 40 39 39 39 38 38 38 38 39 38 38 39 38 38 38 38 38 38 39 39 39 40 40 41 41 42 42
40 40 38 39 40 40 41 41 40 40 40 40 40 40 40 41 39 39 38 38 38 37 37 38 38 38 40 40 39 38 38 38 38 38 38 38 39 39 40 40 41 41
39 38 38 38 38 39 40 40 40 40 39 39 39 39 40 40 39 38 38 38 38 37 37 37 37 38 39 37 37 38 38 38 38 38 38 38 38 39 39 40 40 40
39 39 38 38 38 38 38 39 40 39 39 38 39 39 39 38 38 38 38 38 38 37 37 37 37 39 37 37 37 37 38 38 38 37 38 37 37 38 39 39 39 39
38 38 38 38 38 38 38 38 38 38 38 38 38 39 38 37 37 38 38 38 38 37 37 37 36 38 37 37 37 37 37 38 37 37 37 37 37 37 38 39 38 39
37 37 37 37 37 37 37 37 37 37 37 37 38 38 37 37 37 37 37 37 37 37 37 36 36 38 37 37 37 36 36 37 37 37 37 37 37 37 37 38 39 38
37 36 36 35 36 36 36 36 36 35 36 37 37 36 36 36 36 36 36 37 36 37 37 36 36 37 37 36 36 36 36 37 36 37 36 36 36 37 37 38 38 38
36 35 35 34 35 35 35 34 34 34 35 36 37 35 36 36 36 36 36 35 36 36 36 35 35 36 36 36 36 36 37 37 36 36 36 36 36 36 37 37 38 38
36 35 35 34 34 34 34 34 34 35 35 37 35 34 35 35 36 35 35 35 35 35 35 35 34 35 36 36 36 36 37 36 36 36 36 35 36 36 36 37 37 38
35 35 34 34 33 33 33 33 33 33 34 35 33 34 34 35 36 36 35 35 35 34 35 36 34 35 36 36 36 36 37 36 36 35 35 35 35 36 36 36 37 40
35 35 34 33 34 33 34 34 33 34 34 33 34 33 34 34 38 35 35 35 35 35 38 35 33 35 36 35 36 36 37 36 36 35 35 35 35 35 36 36 36 38
36 36 34 34 34 33 34 34 35 33 34 33 33 34 34 34 34 35 34 34 35 34 34 34 33 34 36 35 36 36 36 36 36 35 35 35 35 35 35 35 35 36

ECMWFNIL_sfc_dewp_090.txt.gz
Dewpoint
49 49 48 47 48 48 47 46 46 46 46 46 46 46 46 46 47 47 47 47 48 44 43 43 42 42 43 43 43 45 46 46 48 48 48 50 51 52 53 55 55 58
47 49 49 47 47 47 46 46 46 45 45 45 45 46 46 45 45 46 46 46 46 43 42 42 42 42 41 41 42 43 43 43 44 46 45 46 48 49 50 52 53 55
47 47 46 46 46 46 46 46 46 45 44 44 45 45 45 46 45 45 45 45 45 43 42 42 42 41 41 41 41 42 42 42 43 43 44 44 45 45 47 48 50 52
46 46 46 46 46 45 45 45 45 45 44 43 43 44 44 44 44 44 44 44 43 42 42 41 41 41 41 40 41 41 41 42 42 43 43 43 44 45 45 46 47 48
45 45 45 46 46 45 45 44 44 44 43 43 43 43 43 43 43 42 43 42 42 41 41 40 40 40 40 40 40 40 40 40 41 41 42 42 43 44 45 45 45 45
45 45 45 45 46 45 44 44 44 44 43 43 43 43 42 42 42 42 42 42 41 41 40 39 39 39 40 39 39 39 39 40 40 40 41 41 42 43 44 44 44 44
43 43 43 44 44 45 45 44 44 45 43 43 43 43 42 42 41 41 41 41 41 41 39 39 39 39 39 39 39 39 39 39 39 39 40 40 42 42 43 43 44 44
42 42 42 42 43 43 44 44 44 44 44 42 42 42 43 42 42 41 41 41 41 40 39 39 39 39 39 39 38 38 39 39 40 39 39 40 41 41 42 43 43 44
42 41 41 41 42 42 42 42 43 44 44 43 42 41 42 42 42 41 41 40 40 40 39 39 38 38 39 38 38 38 38 38 39 39 39 39 40 40 42 43 43 44
42 42 42 41 41 41 41 41 42 43 44 42 41 41 40 41 41 40 39 39 39 39 39 38 38 38 38 38 38 38 38 38 38 39 39 39 39 40 41 42 42 43
42 42 42 42 41 41 41 41 41 41 42 41 40 40 40 40 40 40 39 38 39 38 38 38 38 38 37 37 38 38 38 38 38 38 39 38 39 40 43 41 41 42
43 42 42 42 42 41 41 41 41 41 41 41 40 39 39 39 39 39 40 38 38 37 37 38 38 38 37 37 37 37 38 38 38 38 38 38 38 39 40 40 41 40
42 42 42 42 42 41 41 41 41 41 41 41 41 40 39 39 38 38 39 38 38 38 38 38 38 38 38 37 37 37 37 37 38 38 38 38 38 38 39 40 40 40
41 41 42 42 42 41 40 40 40 40 40 41 41 40 40 39 38 38 38 38 38 38 38 39 37 38 38 37 37 37 38 38 38 38 38 38 38 37 37 38 39 40
40 41 41 41 41 40 40 40 40 40 40 39 39 39 41 39 38 38 37 37 37 37 37 37 37 38 38 38 37 37 37 37 37 37 37 37 37 37 37 37 38 39
39 40 39 39 40 40 40 39 39 39 39 39 38 38 38 39 37 37 37 37 37 37 37 37 37 38 40 39 39 38 37 37 37 37 37 37 37 37 36 37 38 38
38 38 38 38 39 39 39 39 39 39 38 38 38 38 38 38 37 36 37 37 37 36 36 37 37 37 38 37 37 37 38 37 37 37 37 37 37 36 36 36 37 38
38 38 38 38 38 38 38 39 39 38 38 38 38 38 38 37 36 36 36 36 37 36 36 36 36 38 36 37 37 37 38 38 37 36 37 37 36 36 36 36 36 37
38 38 37 37 37 37 38 38 38 38 38 38 38 39 37 36 36 36 36 36 36 35 36 36 35 37 36 37 36 36 36 37 36 36 36 36 36 36 36 36 36 37
37 37 36 36 37 37 37 37 37 37 37 38 38 38 37 36 36 36 36 36 36 35 36 35 34 36 36 36 36 36 36 37 36 36 36 36 36 36 36 36 36 36
36 36 36 35 35 35 36 36 36 36 36 38 37 36 36 36 36 35 36 37 35 35 35 35 35 36 35 36 36 36 36 37 36 36 36 36 36 36 36 36 36 36
35 35 34 34 35 35 35 35 35 35 35 37 37 35 36 36 36 36 36 35 35 35 35 35 34 35 35 36 36 36 36 37 36 35 35 35 35 36 36 36 35 36
35 35 35 34 34 34 34 34 34 35 35 38 35 35 35 35 36 35 35 35 35 35 35 35 34 35 35 35 36 36 37 36 36 35 35 35 35 35 35 35 35 36
35 35 35 35 34 34 34 34 34 34 35 37 34 34 34 34 36 34 34 35 35 34 35 35 33 35 36 35 36 36 37 36 36 36 35 35 35 35 35 35 35 39
35 35 34 34 34 34 34 34 35 35 36 34 34 34 34 34 37 34 33 33 34 35 37 34 33 35 36 35 36 36 37 36 35 35 35 35 35 34 35 35 35 36
36 37 35 34 34 34 34 35 36 34 34 34 34 34 33 33 33 34 33 33 33 33 34 33 34 34 36 35 36 36 37 36 36 35 35 35 35 34 34 34 34 35

ECMWFNIL_sfc_dewp_093.txt.gz
Dewpoint
50 49 49 48 47 48 47 47 46 46 46 46 46 46 46 47 47 47 46 46 46 45 45 45 45 45 45 45 46 45 46 47 46 46 47 47 47 48 48 48 49 49
49 49 48 47 46 46 45 46 46 45 45 46 46 45 45 45 46 45 45 44 44 44 44 44 44 44 44 44 45 45 44 45 45 45 46 46 46 47 47 47 48 48
48 48 47 46 45 46 46 46 46 45 44 45 45 45 44 45 45 44 44 44 43 43 43 43 43 43 43 43 44 44 44 44 44 44 44 45 46 46 46 47 47 47
47 46 46 46 45 45 45 45 45 45 44 43 44 44 44 45 45 44 44 44 43 42 43 43 43 43 43 43 43 42 43 43 42 43 43 44 45 45 46 46 46 46
46 46 46 45 45 45 45 44 44 44 43 43 44 44 44 44 43 43 43 43 42 42 41 41 42 42 42 42 42 42 42 42 42 42 42 43 44 44 45 45 45 45
45 44 44 44 45 44 44 44 43 43 43 43 44 43 43 43 42 42 42 42 41 41 41 41 40 41 41 41 42 42 42 41 41 41 41 42 42 42 43 44 45 44
45 45 45 44 45 45 44 44 43 43 42 43 42 42 42 41 41 41 40 41 40 40 39 39 40 41 41 41 41 41 41 41 40 40 40 40 41 42 42 44 44 43
45 45 44 44 44 43 43 42 42 42 42 41 42 41 41 40 39 40 40 40 39 38 39 38 39 39 40 40 39 40 40 40 40 39 39 39 40 40 41 43 43 42
44 44 43 43 43 42 42 41 41 41 41 41 40 40 40 40 40 39 39 38 37 38 38 38 38 38 40 39 39 39 38 40 40 39 39 40 40 39 39 40 41 42
43 42 43 42 42 42 42 42 42 41 40 40 39 39 38 40 39 38 38 38 38 37 37 38 38 38 38 39 39 39 39 39 39 39 39 39 39 39 39 39 39 40
43 42 42 42 42 42 42 41 41 41 40 38 39 38 38 38 38 38 37 36 38 36 36 37 38 38 37 37 38 38 38 39 39 39 39 39 39 39 41 39 39 39
42 42 42 42 41 41 41 41 40 40 39 39 38 38 38 37 37 36 37 35 35 36 37 37 37 37 37 36 37 38 38 39 39 39 39 38 39 39 39 39 38 38
41 41 41 41 41 41 40 39 39 39 38 38 37 36 36 36 35 35 36 35 35 36 37 38 37 36 37 37 36 36 37 37 37 38 37 38 37 37 37 38 38 37
41 41 41 40 40 40 39 39 38 38 37 37 37 36 36 35 35 35 35 35 36 36 37 38 37 36 36 37 36 37 37 37 36 37 37 37 38 37 37 37 37 37
40 41 40 40 39 39 39 39 38 38 37 36 36 36 37 35 35 35 34 34 34 36 36 38 37 37 38 38 38 37 36 36 37 36 37 36 36 36 36 36 36 37
39 40 39 40 39 38 38 38 37 38 37 36 35 35 36 36 35 35 34 34 35 35 37 38 37 37 38 38 38 38 37 37 38 38 38 37 37 36 36 36 37 37
38 39 39 39 39 39 38 36 36 37 37 36 37 37 37 36 36 35 35 36 35 35 36 37 37 36 37 36 37 37 38 38 38 38 38 37 36 35 35 36 36 36
38 38 39 39 38 36 36 36 36 36 36 36 37 37 37 37 36 36 35 36 37 36 37 37 37 38 36 37 37 37 38 38 38 38 37 37 36 35 36 37 37 37
38 38 38 39 37 37 37 36 35 35 36 36 36 38 37 36 36 36 36 36 36 36 36 36 36 37 36 36 36 36 37 37 36 37 36 36 36 36 36 36 36 37
38 37 38 38 38 36 35 34 34 35 37 37 36 36 36 36 36 36 36 36 36 36 36 36 36 37 36 36 36 36 36 37 38 37 37 35 34 36 37 36 36 36
37 37 37 37 36 35 35 35 36 36 35 36 35 36 36 35 35 35 36 36 36 36 36 36 37 36 36 36 36 36 36 37 37 36 36 36 36 36 36 36 36 36
37 37 37 35 34 34 34 34 36 37 37 37 36 35 36 35 35 35 35 35 36 36 37 35 37 36 36 36 36 36 37 36 35 35 35 35 35 36 35 35 36 36
35 35 36 34 34 34 33 35 36 36 37 37 36 36 35 35 36 35 35 35 35 36 37 36 36 37 36 36 36 36 36 34 34 33 34 34 34 35 34 35 35 35
35 33 33 34 34 33 35 37 37 37 37 38 36 36 35 36 36 34 34 34 35 36 36 37 36 38 36 36 36 36 37 34 32 32 33 33 33 33 33 33 34 37
36 35 34 34 33 36 37 36 36 37 37 38 37 37 37 36 36 34 34 34 35 36 37 37 37 38 37 36 36 36 37 35 32 31 32 33 32 32 33 32 33 35
38 37 38 36 35 38 38 37 38 38 38 38 37 35 35 35 35 35 35 34 35 35 36 37 37 38 37 36 36 36 37 37 33 32 33 32 31 31 31 32 32 32

ECMWFNIL_sfc_dewp_096.txt.gz
Dewpoint
52 52 51 50 50 50 50 50 49 50 49 48 48 48 47 48 48 48 48 47 47 47 47 48 47 48 48 48 50 48 48 49 49 49 49 49 48 49 48 48 50 48
51 51 50 50 49 49 48 49 49 48 48 49 48 47 48 48 47 47 47 46 46 46 46 46 46 47 47 47 48 47 47 48 47 48 49 49 48 48 48 48 48 48
49 50 49 49 48 49 49 49 49 49 48 48 49 48 48 47 47 46 46 46 45 45 45 45 46 46 46 46 47 46 47 46 46 47 47 47 47 47 48 47 46 47
49 49 49 49 48 47 48 48 48 48 48 47 47 47 46 47 46 46 45 45 44 44 45 44 45 45 45 45 46 44 46 45 45 47 46 46 46 46 47 47 46 46
49 48 48 47 47 47 48 47 47 47 47 46 46 45 45 45 44 43 44 43 44 43 43 43 43 44 45 45 45 44 45 43 44 45 44 44 45 46 46 46 46 46
47 45 46 46 47 47 46 45 45 45 45 45 45 43 43 43 42 42 42 42 42 41 42 42 42 43 44 43 44 44 44 44 44 43 42 43 44 44 44 45 45 44
46 47 47 45 46 46 45 45 44 44 44 43 42 42 42 42 42 41 40 41 41 41 40 41 41 43 43 43 43 43 43 44 43 41 41 42 43 43 43 44 44 43
46 46 45 44 45 44 43 42 42 43 43 42 43 42 41 41 40 42 40 40 40 39 40 39 40 40 41 42 42 43 43 43 43 41 42 41 42 41 42 44 44 43
45 44 44 45 44 43 42 41 42 42 41 42 41 41 41 41 40 40 40 39 39 40 40 39 39 39 41 41 41 41 40 42 43 42 42 42 42 41 40 42 42 42
44 43 43 43 43 43 44 42 41 41 41 41 41 41 39 41 40 38 38 39 39 39 39 38 39 39 39 40 40 41 40 40 40 41 41 41 41 40 40 41 40 40
44 43 43 43 43 42 43 42 42 41 41 38 39 39 38 39 38 38 38 38 41 39 39 38 38 38 38 38 40 41 40 40 40 40 41 40 41 41 41 41 40 39
43 43 42 42 42 42 42 41 41 40 39 39 37 37 38 38 39 38 38 37 38 38 38 37 37 37 37 37 38 39 41 41 41 41 40 39 39 40 39 39 40 38
42 42 42 42 41 41 41 39 39 39 38 37 37 37 37 37 38 37 38 38 38 39 38 38 37 37 37 38 38 38 39 39 41 40 40 40 40 39 38 38 37 37
41 41 40 40 40 40 39 39 38 38 38 38 38 39 38 36 36 37 38 37 39 39 39 38 37 35 36 37 37 39 40 41 40 40 40 40 41 39 39 38 37 36
41 40 39 38 38 38 38 38 38 38 37 37 38 39 39 36 36 37 37 37 38 40 38 38 37 36 38 38 38 38 40 39 40 40 40 39 39 38 38 36 36 37
38 39 37 38 37 37 37 37 37 38 38 38 37 37 38 38 37 38 37 38 38 39 39 38 36 37 39 38 38 38 39 40 41 40 38 37 38 37 37 36 36 37
37 36 36 36 37 37 36 35 35 37 37 38 38 38 39 38 38 37 39 39 38 38 38 38 36 37 38 37 37 38 39 41 40 39 39 38 37 36 37 36 36 36
36 34 34 34 34 33 34 34 35 35 36 37 38 39 38 39 39 38 39 40 40 38 38 37 36 38 36 37 37 37 38 41 40 38 38 36 35 36 36 36 36 37
33 32 33 33 33 33 35 35 34 35 35 37 38 39 39 38 38 39 39 40 40 38 38 35 35 37 36 37 37 37 37 39 37 38 37 36 36 37 36 36 36 36
33 33 34 33 35 34 34 34 35 36 37 37 38 38 38 38 39 39 39 39 39 39 37 35 34 37 36 37 37 36 36 38 38 37 37 35 34 35 36 35 35 35
33 33 33 33 33 34 35 35 36 37 36 36 36 37 37 36 37 38 38 38 38 39 38 37 35 37 36 36 36 36 36 38 38 38 36 36 34 35 34 34 34 35
33 33 33 32 33 34 34 35 37 38 37 37 37 36 37 36 36 36 37 37 37 38 38 37 35 36 36 36 36 36 37 37 36 36 35 34 33 34 31 32 33 33
32 32 33 33 34 34 34 36 37 37 37 36 36 36 37 36 36 35 36 36 36 37 39 37 35 36 36 36 36 36 37 37 35 33 33 33 33 32 30 32 31 32
32 31 32 33 33 34 36 37 36 37 37 37 36 35 35 35 35 34 35 36 36 36 36 37 36 36 36 36 36 36 37 37 33 33 33 33 31 32 32 30 32 40
31 32 32 33 34 36 37 36 37 37 37 37 35 35 35 34 34 34 34 35 36 37 37 36 36 35 36 36 36 36 37 37 32 32 32 33 31 30 30 32 33 35
33 34 34 34 34 36 37 37 37 38 38 37 35 32 32 33 34 34 35 34 36 36 36 35 36 35 36 36 36 36 36 38 33 32 33 33 31 29 29 31 33 32

ECMWFNIL_sfc_dewp_099.txt.gz
Dewpoint
53 53 52 51 51 51 51 51 50 51 51 50 49 49 47 49 49 49 48 48 48 48 47 48 47 48 48 48 49 46 45 47 48 50 49 48 48 49 49 48 49 47
53 52 51 51 50 51 51 51 50 50 51 50 49 48 49 48 47 48 47 46 45 46 45 46 47 46 46 46 47 47 44 46 47 47 47 46 47 47 47 49 48 48
51 51 51 51 50 50 50 50 51 50 49 49 49 49 48 48 47 46 46 46 45 45 45 46 47 46 45 45 45 46 45 45 46 46 46 45 46 46 46 47 47 48
51 51 50 49 49 50 51 50 50 49 48 47 47 47 45 46 45 45 45 45 44 44 45 46 46 46 45 45 45 44 45 45 45 45 45 45 46 45 46 46 46 46
50 49 49 49 49 49 50 48 47 47 46 45 46 45 45 45 44 43 44 43 44 43 44 43 44 45 45 45 45 45 45 44 44 43 43 43 44 44 44 45 46 45
49 46 47 48 48 48 47 46 45 44 44 44 44 43 44 44 42 42 42 43 42 41 41 42 42 43 44 43 45 44 44 44 43 42 42 42 43 43 43 45 44 43
47 48 47 46 46 46 45 45 45 44 44 44 42 43 43 42 42 41 40 41 41 40 39 41 41 43 43 43 43 43 43 44 43 41 42 42 43 43 42 45 43 41
47 47 45 44 45 45 45 44 44 43 44 43 44 43 42 40 40 42 40 41 39 38 39 39 40 40 42 43 42 43 43 43 44 42 42 42 43 41 42 44 43 41
46 45 44 45 44 43 43 42 43 43 42 43 41 41 41 40 40 40 40 40 38 39 39 40 40 39 41 41 41 42 41 42 42 42 42 42 42 41 39 40 40 41
45 44 45 45 44 44 44 42 41 41 41 41 40 40 39 41 40 38 40 41 40 37 38 38 38 39 39 40 40 41 41 41 41 42 41 41 40 39 39 40 39 39
45 44 44 44 44 43 43 42 42 41 40 37 39 39 38 39 39 39 39 40 40 37 37 37 37 37 37 38 39 41 42 42 41 40 41 40 40 40 40 39 39 38
43 44 43 43 43 43 42 41 40 40 39 39 37 38 38 39 39 39 39 38 38 37 37 36 35 36 36 37 38 40 42 43 43 42 41 39 39 39 38 39 38 37
42 41 41 42 42 41 41 40 39 39 38 38 38 37 37 38 38 38 40 39 38 38 36 36 36 35 37 39 39 40 42 41 42 41 41 41 40 38 38 38 37 36
41 41 41 40 40 39 38 38 37 38 39 39 39 38 38 38 38 39 40 40 40 38 36 37 35 35 37 38 39 40 42 41 41 41 40 40 41 38 38 37 36 36
39 39 39 39 37 37 38 38 38 39 37 37 38 39 40 38 39 39 39 39 38 39 36 36 37 37 38 39 39 39 41 41 41 40 39 39 38 37 37 36 36 36
37 38 37 37 37 37 36 37 37 38 38 37 37 37 39 39 39 40 38 39 38 37 37 37 37 38 39 39 39 39 40 41 41 41 39 38 37 37 36 36 35 35
36 35 35 35 35 36 36 35 35 37 37 38 39 40 40 40 40 40 40 39 37 36 36 37 36 36 38 37 37 38 40 41 41 39 38 37 37 36 35 34 34 34
34 34 33 33 34 32 33 33 34 35 37 38 39 40 40 41 41 41 41 41 39 36 36 36 36 38 36 37 37 37 38 40 41 39 38 37 36 35 34 34 34 34
33 33 33 33 33 33 34 35 34 35 36 37 39 40 41 40 40 41 42 41 40 36 35 34 35 37 36 37 36 36 36 39 39 39 37 36 36 35 34 34 34 34
33 32 32 32 34 35 34 34 34 35 38 38 38 39 39 40 40 41 41 41 40 38 36 33 33 37 36 36 36 36 35 37 39 39 38 36 35 35 35 34 34 34
31 31 32 33 33 33 35 35 36 37 36 36 37 37 37 37 38 39 40 41 41 39 37 35 35 36 35 35 35 35 35 39 38 38 37 36 36 35 34 34 35 35
32 32 33 32 33 34 34 35 37 37 37 37 37 36 37 37 38 37 38 39 40 41 38 35 33 35 35 35 35 35 35 39 35 37 36 35 35 33 33 32 33 34
32 32 33 33 33 34 34 37 37 36 36 36 36 36 36 35 37 37 37 37 37 39 39 36 33 35 35 35 35 35 37 38 35 33 35 35 34 32 32 32 33 32
31 31 32 33 33 33 35 36 37 37 37 36 35 35 34 35 35 36 37 36 35 36 37 37 34 36 35 35 35 36 37 38 33 33 35 35 33 32 32 31 32 40
31 32 33 33 34 36 38 37 37 37 37 37 35 35 35 33 33 34 36 37 37 35 38 38 36 37 36 35 35 36 37 38 32 31 34 35 33 30 32 32 31 36
33 34 35 35 34 37 38 37 37 37 37 36 34 32 33 33 33 35 35 35 37 37 36 35 36 36 37 35 36 36 36 38 35 33 33 34 34 30 30 32 31 31

ECMWFNIL_sfc_dewp_102.txt.gz
Dewpoint
56 56 55 54 54 54 54 53 53 52 52 51 51 50 50 50 50 51 50 49 48 48 49 49 49 49 49 49 50 46 47 50 49 49 49 49 48 48 48 47 48 48
55 54 53 53 53 53 53 54 52 52 51 51 50 50 49 49 49 49 49 48 47 47 48 49 48 47 47 47 48 49 47 48 48 48 48 47 47 47 47 48 48 48
54 54 53 52 52 52 52 52 52 51 51 50 50 50 49 49 49 49 49 49 48 48 48 48 48 47 46 46 47 48 47 46 47 48 48 47 47 47 47 48 47 46
52 52 51 51 51 50 51 51 51 50 50 49 49 48 47 48 49 48 48 47 48 47 47 47 47 47 46 46 47 48 47 46 46 47 46 47 46 46 47 46 47 45
51 51 50 50 50 50 50 48 47 48 48 48 49 49 48 48 48 46 48 47 47 45 46 45 46 46 47 47 46 47 47 47 45 46 46 46 46 46 45 45 45 44
49 47 47 48 49 49 47 46 46 46 46 47 48 47 48 47 45 44 45 44 44 43 44 44 44 45 45 45 47 46 46 46 44 44 43 44 44 44 44 44 43 41
49 49 48 47 47 47 47 47 46 46 46 46 45 46 46 46 44 42 41 42 41 42 41 42 42 44 45 46 46 45 45 45 43 43 42 43 44 42 42 42 42 40
48 47 47 46 47 47 46 45 45 46 46 45 45 45 44 42 42 44 42 41 40 39 40 40 40 41 43 44 44 45 45 44 44 43 43 42 44 40 41 43 42 40
46 46 45 46 46 46 45 44 45 45 44 44 43 43 43 43 43 43 41 39 39 39 38 38 38 39 42 42 43 43 43 44 44 44 43 42 41 40 39 40 40 40
45 46 46 45 45 45 45 44 43 44 43 43 42 43 41 44 42 41 41 40 39 37 37 36 37 38 39 40 41 43 43 42 42 43 42 41 41 40 40 39 39 39
46 45 45 45 45 45 45 44 43 43 43 39 42 41 41 42 42 41 40 38 39 36 36 36 36 37 39 40 41 43 43 44 42 42 42 41 41 41 40 39 38 38
45 45 44 44 43 44 43 43 43 42 42 42 40 40 41 41 42 41 39 36 35 35 36 36 36 38 38 39 40 42 44 45 44 43 43 40 40 40 38 38 38 37
44 44 44 44 44 44 44 41 42 43 40 40 41 41 41 41 41 40 40 37 36 36 36 37 37 37 37 38 39 40 41 43 43 43 42 42 40 39 38 38 38 38
43 43 42 42 42 41 40 42 41 41 41 41 41 42 41 40 41 41 41 38 37 37 37 37 37 36 37 37 37 38 40 42 43 43 42 40 42 40 41 41 38 38
42 42 42 41 40 41 41 41 41 41 40 40 41 42 44 40 40 40 38 37 36 37 36 36 37 37 38 38 38 38 38 41 43 41 41 40 40 41 42 40 39 39
39 40 38 39 39 39 39 40 39 41 41 41 41 41 42 42 41 40 36 36 36 35 36 37 36 38 38 38 38 38 38 40 42 43 42 42 40 40 42 40 41 38
37 37 37 37 38 39 39 37 38 40 40 41 41 42 43 43 43 40 37 36 34 34 35 35 36 36 38 36 36 37 38 40 41 43 41 41 39 37 40 36 38 35
37 36 35 36 36 34 36 37 39 39 40 41 42 43 43 44 44 42 40 38 36 34 34 34 35 38 36 36 36 36 37 39 42 42 42 43 39 37 40 37 37 37
34 33 33 35 35 35 37 37 38 38 39 40 41 42 43 42 42 43 42 40 37 34 33 32 33 37 36 36 36 36 36 38 41 43 43 42 42 38 40 39 40 39
33 33 34 34 35 35 37 36 37 38 41 41 41 42 41 41 42 43 43 41 38 36 34 32 34 37 35 36 36 35 35 37 43 44 43 41 42 36 38 41 39 39
34 33 33 34 35 36 37 36 38 40 39 40 40 40 40 40 41 42 43 42 40 37 35 34 37 35 35 35 35 35 36 40 40 40 41 40 42 39 37 41 38 40
31 32 34 35 36 36 37 37 39 39 39 40 40 40 40 40 40 40 42 42 42 38 36 35 36 35 35 35 35 35 36 41 37 37 39 38 39 38 33 40 38 38
33 34 36 35 36 36 36 38 39 39 41 41 40 40 39 39 39 38 38 40 41 39 37 36 36 36 35 35 35 35 37 39 36 34 36 37 37 38 35 40 41 39
34 33 34 36 36 36 38 40 40 41 40 41 40 40 39 39 39 37 36 37 40 40 39 37 37 38 35 35 35 36 37 38 35 33 35 35 36 38 36 38 38 42
34 34 34 36 36 38 39 39 39 40 41 42 41 39 40 38 38 38 38 37 38 40 43 40 38 38 35 35 35 36 37 37 36 33 33 34 35 36 36 35 38 41
36 36 36 36 36 39 39 40 40 41 43 41 41 36 35 36 37 38 39 38 39 40 41 42 40 39 37 35 36 36 36 38 36 34 32 33 34 34 34 33 35 33

ECMWFNIL_sfc_dewp_108.txt.gz
Dewpoint
52 52 51 51 51 50 48 47 47 46 46 46 45 46 46 46 47 46 46 47 47 46 46 46 46 45 46 46 45 45 46 46 46 44 44 45 44 42 42 41 41 41
52 52 52 50 50 49 48 47 46 45 45 45 45 46 46 46 46 45 45 44 45 45 45 45 46 45 45 45 45 44 44 44 45 46 43 43 43 42 41 41 40 40
50 50 49 48 47 47 47 47 46 46 46 46 46 46 46 47 46 45 45 44 44 44 45 45 45 45 44 44 44 43 43 43 43 43 44 42 42 41 41 40 40 39
49 48 48 47 47 46 46 46 46 46 46 45 45 46 47 47 45 45 45 46 43 43 44 44 45 45 44 44 44 43 43 43 43 43 42 43 43 41 40 40 41 39
49 49 48 47 47 47 46 45 45 45 45 46 46 47 45 42 42 42 42 42 42 41 42 42 43 44 45 44 43 43 44 43 43 42 41 41 42 41 41 40 39 39
48 47 47 46 46 45 45 44 45 45 44 44 44 44 42 42 41 40 40 40 40 40 41 41 41 42 43 44 44 43 43 43 42 41 40 40 40 41 40 39 39 39
46 45 45 45 45 45 44 44 45 45 44 44 43 42 41 40 39 39 39 39 39 41 40 40 41 41 42 43 43 43 43 42 42 40 39 40 41 40 40 39 40 39
45 45 45 45 44 44 44 44 44 44 43 42 41 42 40 39 38 39 38 39 39 39 39 40 40 40 41 42 42 43 43 43 41 40 39 39 39 39 39 40 38 37
44 44 44 43 43 43 43 43 43 43 43 41 40 40 40 38 38 38 38 38 38 39 39 39 39 39 40 40 40 41 42 42 41 40 38 38 39 39 39 38 38 39
44 43 43 42 42 42 41 42 42 42 42 40 39 39 38 39 38 38 38 38 37 37 37 37 37 38 38 39 39 40 41 42 41 40 39 39 39 39 38 38 37 36
43 43 42 42 42 42 42 42 42 43 42 40 39 38 38 38 39 38 37 37 37 36 36 36 37 37 37 37 38 39 40 41 41 39 39 38 39 40 43 38 39 37
43 42 42 41 41 41 41 41 42 41 40 40 38 38 38 38 38 38 38 37 37 37 36 36 36 36 36 37 37 38 39 41 41 40 40 38 38 38 39 39 38 37
42 42 42 42 41 41 41 41 41 40 40 39 39 38 37 37 37 37 38 37 36 36 36 36 36 36 36 36 36 37 38 40 40 41 39 40 39 38 37 37 38 38
42 42 41 41 41 41 41 41 41 41 41 40 39 38 38 37 37 36 37 36 36 36 37 39 36 36 36 36 37 37 38 38 39 41 40 38 39 38 37 37 38 39
42 41 42 42 41 40 41 41 42 42 41 40 39 39 39 37 36 36 35 34 34 34 35 36 37 37 38 37 37 37 36 38 38 40 40 38 38 38 36 36 36 38
41 41 40 40 40 40 40 41 41 41 40 38 37 37 37 37 36 36 35 34 33 33 34 35 36 37 39 38 39 38 37 37 38 39 40 38 38 37 36 37 35 36
40 40 39 39 39 40 41 41 41 39 37 36 36 35 35 36 33 33 33 33 33 33 33 35 36 37 38 37 37 39 39 37 37 39 40 38 38 37 35 37 37 36
39 39 39 39 40 40 40 40 40 39 38 37 35 34 35 34 33 33 33 32 33 33 34 35 35 38 37 37 38 38 41 39 38 39 39 37 35 36 36 37 35 36
38 38 39 39 39 40 40 40 40 40 39 37 35 35 34 33 33 33 32 33 32 32 33 34 34 38 37 37 37 37 38 38 37 38 38 37 36 36 36 36 36 38
38 38 38 39 39 40 40 41 41 41 40 39 38 36 34 33 33 32 33 32 32 32 33 33 34 37 36 37 37 37 37 37 35 36 36 36 36 36 36 36 35 35
37 37 38 38 39 39 40 40 40 40 40 40 37 36 35 34 33 32 33 35 33 32 32 33 34 36 36 36 37 37 37 36 35 36 35 35 35 36 36 36 35 36
37 37 38 38 38 39 39 39 39 39 40 40 39 38 37 36 34 34 32 31 32 31 31 30 32 36 36 36 36 36 37 36 34 34 34 35 35 35 35 35 36 35
36 37 37 37 38 38 38 38 39 39 39 40 38 38 38 36 34 33 33 32 33 32 30 29 31 34 35 36 36 36 36 34 33 33 33 33 33 34 35 35 35 38
36 36 37 37 37 38 38 38 38 38 38 39 38 37 37 36 36 34 33 33 32 31 30 30 30 34 35 36 36 36 37 33 33 32 31 32 33 33 34 33 34 40
35 36 36 37 37 37 37 37 37 37 38 37 36 36 37 37 38 35 34 33 33 32 38 33 31 33 35 35 35 36 36 33 33 31 31 30 32 34 33 33 33 36
35 36 37 37 37 37 37 37 37 37 37 36 35 35 36 36 37 36 35 35 36 36 38 33 32 31 35 35 36 36 37 34 33 31 31 30 31 34 33 32 33 32

ECMWFNIL_sfc_dewp_111.txt.gz
Dewpoint
54 53 52 51 50 49 48 47 46 46 46 46 45 45 45 46 47 46 46 46 45 45 45 45 45 45 45 45 45 45 44 44 43 42 41 41 39 39 39 38 39 39
52 53 53 50 50 49 47 46 46 45 45 45 45 46 45 45 45 45 44 44 45 44 44 44 45 44 44 44 43 43 43 43 43 44 40 39 39 38 38 38 38 38
51 51 49 48 47 46 46 46 45 45 45 45 45 45 45 45 44 44 44 44 44 44 44 44 44 44 44 43 43 42 42 42 42 42 41 39 39 38 38 38 38 38
49 49 48 47 46 46 46 46 46 46 45 45 45 46 46 45 43 43 44 47 43 43 44 44 44 43 43 43 43 42 42 42 42 42 41 41 41 39 39 40 40 38
48 47 47 46 46 46 46 45 44 44 45 45 45 45 44 42 41 41 42 42 42 42 42 43 43 44 44 43 42 42 42 41 41 41 40 40 39 40 39 39 38 38
48 47 47 46 46 45 44 44 45 45 43 42 42 43 41 41 40 41 41 41 41 41 42 42 42 43 43 43 42 41 41 40 40 40 39 39 38 39 39 38 38 38
47 46 46 46 45 44 44 44 45 44 42 42 41 40 39 39 39 40 40 41 41 42 41 41 41 42 42 42 42 40 40 40 40 39 39 39 40 38 39 38 39 37
45 45 45 45 44 44 44 44 43 42 42 40 39 39 39 39 39 40 40 40 40 40 40 40 40 41 41 42 41 41 40 40 39 39 38 38 38 37 38 39 37 37
45 44 44 44 43 43 43 42 42 41 41 39 38 39 39 38 39 39 39 39 39 39 39 39 39 39 40 41 41 40 39 39 39 38 38 38 37 37 37 37 37 38
44 44 43 43 42 42 42 41 41 40 40 38 38 38 38 39 38 38 38 38 38 38 38 38 38 38 39 40 40 40 39 38 38 38 38 38 38 37 37 36 36 35
43 42 42 42 42 42 41 40 39 39 39 38 38 38 38 38 39 38 37 37 37 37 37 37 37 38 38 39 39 39 40 39 38 38 38 38 38 39 42 37 37 35
42 42 41 41 41 41 41 40 39 39 38 39 38 37 37 37 37 38 38 36 36 36 36 36 36 37 37 38 38 39 40 39 40 39 38 38 37 38 37 37 37 35
42 41 41 42 42 41 41 40 38 38 38 38 39 37 37 37 37 37 38 36 36 36 36 36 36 36 36 36 37 37 38 39 39 39 38 37 37 37 37 37 37 36
41 41 41 41 41 41 40 39 38 38 38 38 38 36 36 36 36 36 37 36 36 37 37 38 36 36 35 35 36 36 38 38 39 39 38 37 37 37 37 37 37 37
42 41 41 42 41 40 40 39 39 38 38 38 37 37 38 36 35 34 34 34 35 35 36 36 37 37 37 36 36 36 36 38 38 39 38 37 36 35 35 35 36 38
41 42 41 41 40 40 40 40 39 38 38 37 36 36 36 36 35 34 33 33 34 34 35 36 37 37 40 40 42 37 36 38 39 39 38 37 37 35 35 36 35 36
41 40 40 40 40 41 40 39 38 38 37 36 36 36 36 37 33 33 33 33 33 34 35 36 36 37 39 38 39 41 38 38 38 38 36 36 37 35 34 38 35 35
40 39 39 40 41 41 40 38 37 36 35 35 34 34 34 33 32 32 33 33 34 34 34 35 35 39 38 38 38 39 40 39 37 37 37 35 34 35 35 37 35 35
39 39 39 40 40 40 39 36 35 34 34 33 32 33 32 31 31 32 32 32 33 33 34 34 34 38 37 37 37 37 38 38 37 37 37 35 35 35 35 35 34 37
39 39 39 40 40 39 38 35 34 33 33 33 34 33 31 31 31 31 32 32 32 33 33 33 34 38 37 37 36 36 37 37 35 35 35 35 35 35 35 34 34 35
39 39 39 40 40 39 38 36 35 35 34 34 32 31 31 30 30 30 32 34 32 32 33 33 34 37 36 36 36 36 36 36 35 35 35 34 34 34 34 35 35 35
38 39 39 40 40 39 38 38 37 36 35 34 33 32 32 32 32 33 32 31 31 31 32 31 32 36 36 36 36 36 36 35 34 34 33 33 33 34 34 34 34 35
38 39 39 39 40 39 39 38 38 37 36 36 33 32 31 31 31 31 31 30 31 30 31 29 31 35 36 36 36 36 35 33 32 34 32 32 32 33 33 33 33 37
38 38 39 39 39 39 39 39 38 38 37 37 32 32 30 30 31 31 30 31 30 29 31 31 29 34 36 36 36 37 36 32 31 32 30 31 31 32 33 32 33 39
38 38 39 39 39 39 39 39 38 38 38 37 34 32 31 33 35 31 30 30 29 30 38 32 29 33 36 36 36 37 36 31 32 31 30 29 30 31 31 32 32 35
38 39 39 39 38 39 39 39 39 39 38 37 36 34 34 35 35 32 31 30 32 33 35 31 30 30 35 35 36 36 37 33 31 30 30 29 29 34 32 31 31 32

ECMWFNIL_sfc_dewp_117.txt.gz
Dewpoint
57 55 54 53 52 52 52 51 51 52 52 51 50 50 50 51 51 51 51 51 50 49 49 48 47 46 45 45 44 40 42 43 42 42 41 40 39 40 39 39 42 39
56 55 53 52 51 51 51 51 52 51 51 51 51 50 51 51 51 50 50 50 49 48 47 46 45 43 42 42 43 42 41 42 41 42 41 40 39 40 40 41 41 40
56 55 53 52 51 51 51 52 52 51 51 51 51 51 50 51 50 50 50 49 48 48 48 46 45 43 43 42 42 42 41 41 41 41 40 39 39 39 39 39 39 40
55 54 53 52 51 51 51 51 51 51 50 50 50 50 50 50 50 49 49 49 48 47 47 46 45 43 42 42 42 41 42 41 41 41 39 39 39 38 39 38 38 37
53 52 51 50 50 50 51 50 50 50 50 50 50 49 49 49 49 48 48 48 48 47 46 45 44 43 42 42 41 41 41 40 41 39 38 38 39 39 38 38 37 37
52 50 49 49 49 50 50 50 49 49 49 50 50 49 49 48 47 47 47 47 47 45 45 44 42 42 41 42 42 42 41 39 40 38 36 36 36 36 37 37 35 35
50 50 49 49 49 50 50 50 50 49 49 49 48 48 48 47 47 46 46 46 45 44 43 43 42 42 42 41 41 41 40 39 38 36 35 35 35 37 37 36 34 33
50 49 48 48 49 50 50 49 49 49 49 47 48 47 47 46 45 47 46 45 44 43 43 41 41 40 41 40 39 39 40 40 39 35 35 35 35 33 35 37 36 33
49 48 48 49 49 49 49 48 48 48 47 47 46 47 47 46 46 46 45 45 44 44 42 41 40 40 41 39 39 38 36 39 38 37 36 36 34 32 32 35 34 34
48 48 48 48 49 49 49 48 47 47 47 46 46 46 45 47 46 45 45 45 44 43 42 42 41 40 39 38 37 37 36 36 36 38 37 35 33 31 32 32 33 34
48 48 48 49 49 48 49 48 47 46 46 45 46 46 45 45 45 45 45 44 45 42 42 41 40 38 38 38 40 39 37 37 36 36 37 35 34 34 34 33 33 34
48 49 49 49 48 48 47 47 46 46 46 46 45 45 45 45 44 44 43 43 42 42 41 41 40 38 36 36 37 39 39 39 38 37 36 35 36 33 32 34 35 34
48 49 49 48 48 47 47 45 45 46 45 44 45 45 45 44 44 44 45 43 42 42 42 42 40 39 39 40 38 38 38 38 39 38 38 38 36 33 34 35 35 35
48 49 48 47 47 46 45 45 45 45 44 45 44 45 44 43 43 43 44 43 43 43 43 43 43 41 40 39 38 39 39 39 39 39 37 38 38 36 37 36 36 36
48 48 47 46 45 44 44 44 44 44 44 44 44 45 45 43 43 43 42 42 42 43 43 44 43 42 42 42 41 40 39 39 39 37 38 37 37 36 37 36 36 37
46 47 45 44 43 43 43 43 43 43 43 43 43 43 43 43 42 43 42 42 42 42 43 45 44 45 45 43 43 40 40 39 41 40 38 37 37 37 37 36 36 36
45 44 44 43 42 42 43 42 41 42 42 41 42 42 43 43 43 42 42 42 42 42 43 44 44 42 41 39 40 41 42 42 40 40 39 37 37 37 36 36 35 34
44 43 42 42 42 41 41 41 41 41 40 41 41 42 43 43 43 42 43 43 43 42 44 44 44 43 38 39 39 39 42 42 41 40 39 38 37 36 36 36 36 35
43 42 41 41 41 41 41 41 39 39 39 40 40 42 42 42 42 42 42 43 43 42 43 44 44 39 38 39 39 39 39 41 38 39 38 38 38 37 36 37 36 34
42 41 41 41 41 41 41 39 39 38 40 40 41 41 41 41 42 43 42 42 42 42 43 43 44 40 38 39 38 38 37 39 39 42 40 38 38 38 38 38 36 34
41 41 41 41 40 40 40 39 39 40 39 39 39 39 40 40 41 42 42 42 42 43 42 43 44 38 38 38 37 37 37 39 43 44 41 41 41 40 39 39 37 39
41 41 42 41 39 39 38 38 39 39 39 39 39 39 39 40 40 41 41 42 42 42 42 42 42 37 37 37 37 36 37 41 42 41 41 40 40 39 38 37 37 39
45 44 43 41 40 37 37 37 38 38 39 38 38 38 38 38 40 40 41 41 41 41 42 41 40 38 36 37 36 36 38 39 41 38 39 40 39 39 37 37 40 39
44 44 42 39 38 37 37 37 37 37 37 37 36 36 36 38 39 39 40 40 40 40 40 40 40 39 36 36 36 36 39 39 37 37 38 38 38 38 36 36 41 42
45 44 42 39 38 38 38 36 36 36 36 36 36 36 37 37 37 38 38 39 40 40 41 39 39 39 37 36 36 36 38 39 36 36 37 37 36 35 36 35 37 38
46 44 41 40 38 38 36 36 36 35 36 35 35 34 35 35 36 37 38 38 39 40 40 40 39 39 39 36 36 36 37 37 36 35 35 36 35 33 33 34 35 36

ECMWFNIL_sfc_dewp_120.txt.gz
Dewpoint
61 61 60 60 58 58 58 57 56 56 55 54 54 53 53 53 52 53 52 51 50 49 48 48 47 47 45 45 44 41 43 44 44 44 43 43 43 44 43 42 44 41
62 61 60 59 57 57 57 57 57 56 56 55 54 53 53 53 52 51 50 49 49 48 47 47 46 44 43 43 44 43 42 43 42 42 43 43 42 44 45 45 43 43
61 61 59 58 56 57 57 57 57 56 55 54 55 53 52 52 51 51 50 49 48 48 47 45 45 44 43 43 43 43 43 43 43 42 42 41 41 42 43 42 42 42
60 60 59 57 56 56 56 55 55 55 55 53 53 53 52 52 52 50 50 49 48 47 46 45 44 43 43 43 44 42 43 42 42 43 42 41 41 40 42 42 41 40
60 58 58 57 56 55 55 54 54 54 53 52 53 53 51 51 51 49 49 48 48 46 45 44 43 44 43 44 43 42 42 41 41 41 40 41 42 42 41 41 41 41
58 56 55 55 55 54 54 53 52 52 52 53 52 51 50 50 48 48 48 48 46 45 44 43 41 42 43 43 43 43 42 40 40 39 38 39 39 39 38 39 38 38
58 55 54 54 54 53 53 53 53 53 52 52 50 50 50 49 48 47 45 46 45 44 42 42 42 43 43 43 42 41 40 39 37 35 35 37 38 39 38 39 37 35
56 55 54 54 54 53 53 52 52 51 52 51 51 50 49 47 46 47 46 45 43 42 42 40 41 40 41 42 40 41 41 38 38 35 36 37 38 37 38 39 39 36
55 55 54 54 54 53 52 51 51 52 51 50 49 48 48 47 46 46 45 44 43 43 41 41 40 39 41 40 40 40 39 39 39 38 37 38 37 37 35 37 38 39
54 55 54 53 53 53 52 52 52 51 49 49 48 48 46 47 47 45 45 44 44 41 41 40 39 39 39 38 38 39 38 38 38 39 37 36 36 35 35 36 37 38
54 54 54 53 53 52 52 52 52 50 49 47 48 47 47 47 45 45 45 43 44 41 41 40 38 37 37 37 40 40 39 39 38 36 37 36 37 36 37 37 37 38
54 53 53 53 52 52 52 51 51 50 49 48 46 46 47 46 45 44 43 42 42 41 40 39 37 36 37 37 37 39 40 40 40 39 37 36 36 36 37 38 39 38
53 52 52 52 52 52 51 50 49 50 48 47 46 46 46 45 45 43 44 42 41 41 41 39 37 36 38 39 38 38 39 39 40 40 39 39 36 35 36 38 38 38
52 52 52 52 52 51 50 50 49 49 47 46 46 46 45 44 43 44 44 42 42 42 41 41 39 37 37 38 38 40 41 41 41 41 40 39 39 38 38 38 39 38
53 52 52 52 51 50 50 49 49 48 47 46 46 46 46 43 43 43 43 42 42 43 42 42 41 40 39 40 40 40 41 41 41 40 40 39 39 39 38 37 37 37
52 53 52 51 51 50 49 49 48 48 47 46 45 45 45 44 43 44 42 43 42 42 43 44 43 42 43 42 41 41 41 40 42 42 40 40 39 40 38 37 37 37
52 51 51 50 49 49 49 48 47 48 47 45 45 45 45 45 44 43 42 43 42 43 43 44 44 42 41 39 39 40 42 43 42 41 41 40 40 40 39 38 37 37
51 50 49 48 48 48 48 46 47 47 45 45 46 47 46 46 45 43 43 44 44 43 44 44 45 44 39 39 39 39 41 43 43 42 41 40 40 40 39 39 38 39
49 48 48 47 47 47 47 46 45 45 44 45 46 48 47 46 44 44 45 44 44 43 43 44 46 39 38 39 39 38 39 42 40 42 41 40 39 39 39 39 38 38
48 46 46 47 51 50 49 48 46 44 46 46 46 47 46 45 46 46 46 45 44 43 44 44 46 40 38 38 38 38 38 39 41 41 41 40 39 40 40 40 38 38
46 45 44 45 47 48 48 47 48 45 45 45 45 45 45 44 45 46 45 46 44 44 44 45 47 39 38 38 38 38 38 38 43 41 41 41 41 41 41 41 38 38
45 45 45 46 47 48 47 45 44 44 44 44 44 43 44 44 45 45 45 45 44 44 45 45 48 37 38 38 38 37 38 40 42 41 42 41 41 41 40 40 38 39
45 45 44 45 47 46 44 43 43 43 44 43 42 42 42 42 43 43 44 44 44 44 45 45 46 39 38 38 37 37 38 38 42 40 40 41 41 41 40 39 38 37
45 44 45 44 47 45 46 47 47 46 44 42 41 41 41 41 42 42 43 43 44 44 44 45 45 41 37 37 37 37 39 39 40 39 41 41 41 41 40 38 41 46
45 45 44 44 44 44 43 43 42 43 42 42 42 39 40 39 39 39 41 42 44 44 45 45 44 42 37 37 37 36 40 41 40 37 40 40 40 39 40 38 38 36
46 46 46 45 43 43 43 45 46 43 42 40 39 36 36 36 38 38 40 40 42 43 44 44 44 43 40 36 37 36 37 42 39 37 38 40 39 36 38 38 36 36

ECMWFNIL_sfc_dewp_123.txt.gz
Dewpoint
64 63 63 62 62 61 60 60 60 59 58 56 55 55 54 54 52 53 53 53 51 50 49 49 47 47 45 46 46 42 46 47 45 46 46 47 47 47 45 44 47 44
63 63 62 62 61 61 61 61 60 58 58 57 56 55 55 54 54 53 51 50 49 49 48 48 47 46 46 45 46 45 45 46 44 44 46 46 46 46 46 46 45 44
63 62 62 62 61 62 62 61 60 59 58 56 56 55 54 54 52 51 50 49 48 48 48 47 46 45 45 45 45 44 44 44 45 45 45 44 45 46 46 44 43 43
63 62 62 62 61 61 61 59 58 58 58 57 56 54 54 53 52 51 50 49 48 47 48 47 46 45 44 44 46 45 45 45 44 45 45 45 45 44 45 44 41 40
63 62 62 61 61 60 60 59 57 57 57 56 55 54 52 53 51 50 50 49 48 47 47 45 45 45 45 45 45 45 44 43 43 44 43 42 44 43 43 43 42 41
63 61 60 61 60 60 59 58 56 56 55 55 55 53 52 52 50 49 49 48 47 46 44 44 44 44 45 44 44 44 43 43 43 43 42 41 41 41 40 42 42 42
62 62 61 60 59 59 58 57 56 55 55 55 53 53 52 50 48 48 47 47 44 43 42 43 43 45 45 45 44 43 42 41 40 40 39 40 41 41 39 40 38 37
62 62 60 59 59 58 57 55 55 55 55 53 52 51 50 49 48 48 46 45 43 42 42 41 42 42 44 44 42 42 42 40 40 38 39 40 40 39 40 40 40 38
61 60 59 58 58 57 56 54 54 55 54 53 51 51 49 48 47 47 46 44 43 42 40 41 41 42 44 43 42 41 38 40 40 40 40 41 40 38 37 39 40 41
60 59 59 58 57 57 56 55 54 54 52 52 51 50 47 48 47 45 45 44 43 42 41 40 41 42 42 41 40 40 39 39 38 40 40 40 38 36 37 39 39 40
59 58 58 58 57 56 56 55 54 53 52 50 50 48 47 47 46 45 46 44 44 41 41 40 40 40 40 40 42 41 39 39 37 37 39 38 39 39 39 40 41 39
59 58 58 58 57 56 55 54 54 53 51 51 48 47 47 48 46 44 44 42 42 40 40 40 38 39 38 39 39 41 41 40 39 39 39 38 38 38 38 40 40 39
59 58 58 57 56 55 55 54 52 52 51 49 48 47 47 47 45 44 44 43 41 41 40 39 37 38 39 40 40 39 40 39 39 39 38 39 38 38 39 40 40 38
58 58 58 57 55 54 53 53 52 51 51 50 48 47 47 45 43 44 45 42 41 41 41 40 38 38 38 39 39 40 41 41 40 40 39 39 40 39 40 40 40 37
58 57 56 55 54 53 52 52 51 51 51 49 48 48 47 44 45 44 43 42 41 43 41 40 39 40 40 40 41 40 41 42 41 39 39 38 38 39 40 39 38 36
57 56 54 54 53 52 51 51 51 51 50 49 47 46 45 45 44 44 42 42 42 41 41 42 41 41 45 43 43 41 42 40 42 42 40 39 39 39 39 38 36 34
55 54 54 53 52 52 51 53 54 51 49 48 47 46 45 45 44 43 42 43 42 42 43 43 42 40 39 38 38 40 43 43 42 42 41 40 40 40 39 38 33 29
54 53 53 52 52 51 53 55 53 50 49 47 47 46 46 46 45 44 43 45 44 43 44 44 45 42 37 38 39 38 41 49 43 42 43 41 40 39 38 39 39 39
54 53 53 52 51 53 54 52 51 50 48 47 46 47 46 45 44 46 44 45 45 43 45 45 46 38 38 38 38 38 38 43 42 43 42 41 42 41 39 39 39 40
54 54 53 53 53 52 52 50 50 51 49 47 47 47 47 46 46 46 45 45 45 45 45 45 46 40 38 38 38 37 37 39 44 43 43 41 41 41 41 41 40 40
52 51 52 51 51 50 50 50 50 50 47 46 47 47 47 46 45 45 45 45 45 45 45 45 48 39 37 38 37 37 37 37 44 43 42 42 42 43 42 41 40 41
51 50 50 50 50 49 49 49 49 48 47 48 48 47 46 46 45 45 46 45 45 45 45 45 47 37 37 37 37 37 37 41 42 42 42 42 42 42 41 42 39 40
50 50 50 49 49 49 48 49 49 48 48 47 47 46 46 44 45 45 46 46 45 45 45 45 44 38 36 37 37 37 38 40 42 41 40 42 42 42 41 41 38 38
50 50 50 49 49 48 48 49 49 48 47 48 47 45 47 47 47 50 47 45 45 44 44 45 45 39 37 37 37 37 40 39 40 42 40 42 42 42 41 41 40 47
50 50 49 48 48 48 49 49 49 50 51 50 50 50 48 48 47 44 49 46 44 46 48 45 46 41 37 37 37 37 40 39 38 40 40 41 41 41 41 40 40 40
51 50 49 49 48 48 48 48 47 47 46 46 46 43 43 44 46 43 44 46 46 44 46 44 46 43 40 37 37 37 37 40 40 40 39 41 40 39 39 40 39 33

ECMWFNIL_sfc_dewp_126.txt.gz
Dewpoint
65 64 63 63 63 62 61 61 61 60 60 59 58 57 56 56 55 55 56 55 54 53 52 52 51 52 50 50 50 47 48 50 51 50 51 52 50 49 49 48 49 48
65 63 63 63 63 62 62 62 61 61 60 59 59 57 57 56 56 55 55 53 52 52 51 51 51 49 49 49 50 50 49 50 49 50 50 49 49 49 49 49 48 48
64 63 64 63 62 62 62 63 62 61 60 58 58 57 56 56 55 54 53 52 51 51 52 51 51 50 49 48 49 48 48 48 48 50 50 48 50 49 49 49 48 47
64 64 63 63 63 62 62 62 61 60 60 59 57 56 55 55 54 53 52 52 51 51 51 50 50 49 47 48 49 50 49 49 49 49 48 49 49 48 48 48 47 45
64 63 63 63 63 62 62 60 60 60 59 58 57 56 55 54 52 51 52 51 51 49 50 49 49 49 49 48 48 49 49 49 49 49 49 47 48 47 47 47 47 46
63 62 62 62 63 61 60 60 60 59 58 57 56 55 54 53 51 50 50 49 49 48 48 47 47 48 48 48 49 48 48 47 48 47 45 46 47 48 47 48 47 46
62 62 63 62 62 61 60 60 59 58 57 57 55 54 54 52 51 50 48 48 47 46 45 47 47 48 48 48 48 47 48 47 46 44 43 45 46 46 46 46 46 43
62 63 63 61 61 60 60 59 58 57 57 55 54 54 53 51 49 50 49 48 45 44 45 44 46 46 46 47 45 47 47 45 46 43 43 44 45 43 45 47 46 43
63 63 62 61 61 60 59 57 57 57 56 55 54 53 53 50 50 49 48 45 44 45 43 44 44 45 48 47 47 44 42 45 46 45 44 44 45 43 43 45 45 45
62 62 61 60 60 59 58 57 56 56 55 54 53 52 50 51 50 47 47 45 45 43 43 43 44 46 46 45 43 42 42 43 44 45 45 44 43 41 42 44 45 45
62 61 60 60 59 58 57 57 56 55 54 52 52 51 50 50 49 47 47 45 46 42 42 43 44 44 44 44 45 46 44 44 42 42 44 43 43 44 45 45 45 46
61 61 60 59 58 57 57 56 56 54 54 53 51 49 50 49 47 46 44 43 42 41 41 42 43 43 43 41 41 44 44 43 43 44 43 42 43 43 44 46 46 44
60 60 59 59 58 57 56 55 54 54 53 52 51 50 49 48 47 46 47 44 43 43 42 42 41 42 42 43 42 42 42 42 44 45 45 44 43 43 44 46 45 44
60 59 59 58 57 56 55 55 54 54 52 51 50 49 49 47 46 46 46 45 43 43 43 43 42 41 41 42 41 43 43 43 43 44 42 43 45 44 46 46 45 43
59 59 58 57 56 55 55 54 53 53 52 51 50 50 50 47 46 46 45 43 43 45 43 43 42 42 42 43 43 42 44 42 42 41 42 42 42 43 44 44 42 39
58 59 58 56 55 55 54 53 53 53 52 51 50 49 49 48 46 46 45 44 43 43 43 44 44 43 46 45 45 43 43 40 44 43 41 42 42 43 44 43 39 36
58 59 57 56 55 54 53 52 52 53 52 50 50 49 49 48 47 46 45 45 43 43 44 44 43 41 41 39 39 42 44 45 44 44 42 42 43 43 43 41 36 32
58 58 56 55 54 53 52 52 53 52 51 50 50 50 49 49 48 46 45 47 46 44 45 45 45 43 38 38 39 39 44 46 46 44 44 43 42 41 43 39 36 36
57 56 55 54 53 53 53 53 52 51 50 50 50 50 49 49 47 48 46 47 47 44 45 46 45 39 38 38 38 38 38 45 44 44 43 44 43 43 42 40 37 38
56 55 54 53 53 54 53 52 51 50 51 50 50 49 48 48 48 49 47 48 47 46 46 46 42 39 38 38 38 37 37 42 48 45 46 44 43 43 43 43 43 43
55 54 53 53 53 53 52 51 51 52 51 50 49 48 47 48 47 48 47 49 48 48 47 46 42 38 37 37 37 37 37 39 47 49 46 46 45 46 46 44 44 44
54 53 53 53 52 52 52 51 51 51 50 49 49 48 48 48 48 48 48 50 50 49 48 45 41 37 37 37 37 37 37 45 46 48 46 46 45 47 48 47 46 45
54 54 53 52 52 52 52 51 51 51 50 49 48 48 48 48 47 48 48 50 49 49 47 44 41 39 37 37 37 37 39 45 48 45 46 47 46 47 46 47 45 44
55 53 53 52 52 52 52 52 52 50 49 49 48 48 47 47 49 51 50 49 48 49 48 45 43 40 37 37 37 37 42 47 47 47 47 46 46 46 44 45 42 50
54 53 53 52 52 52 52 51 51 50 49 50 50 49 50 50 48 47 46 48 50 50 49 45 44 41 37 37 37 37 41 45 43 42 44 44 44 44 43 44 45 46
54 53 52 52 51 51 51 51 50 50 50 50 49 48 47 47 49 48 48 48 48 48 49 47 44 41 40 36 36 37 38 42 42 42 42 43 43 43 41 43 45 42

ECMWFNIL_sfc_dewp_132.txt.gz
Dewpoint
63 63 62 62 61 61 60 58 58 57 56 55 53 53 53 53 55 52 52 50 51 51 50 50 50 50 50 49 49 48 48 48 48 46 46 46 45 44 44 43 43 42
63 63 62 62 61 60 60 59 58 57 56 55 54 54 54 54 54 52 50 49 50 49 50 49 49 48 48 48 48 48 48 47 46 47 45 44 44 43 42 42 42 42
63 62 62 61 61 60 60 59 59 58 56 55 54 54 54 54 53 51 49 48 48 48 48 48 48 48 48 48 48 47 46 45 45 45 44 42 42 41 41 41 40 40
63 62 62 61 61 60 60 59 59 58 56 55 54 54 53 54 51 50 49 51 48 48 48 47 47 47 47 47 46 46 45 45 45 44 43 43 43 42 41 42 43 42
62 62 62 61 61 61 60 59 59 57 56 55 54 53 54 52 50 49 48 48 48 47 47 47 46 46 46 46 46 45 46 45 45 43 43 43 43 42 42 41 40 40
62 62 62 61 61 60 60 59 58 57 56 54 53 54 52 51 50 49 48 47 47 47 46 46 45 45 45 46 45 45 45 44 44 43 42 42 42 42 42 41 40 40
62 62 61 61 61 60 60 59 58 57 55 54 54 53 51 50 49 48 47 47 47 47 45 45 45 45 46 45 45 44 45 44 43 42 42 42 42 41 41 41 41 40
62 62 62 61 60 60 60 59 58 56 55 54 53 52 50 50 49 48 47 47 47 46 45 45 45 45 45 44 44 44 44 44 43 42 42 42 42 41 41 41 40 39
62 62 61 60 60 60 60 59 57 55 55 53 52 51 50 49 49 48 47 47 47 46 45 46 45 45 45 44 44 44 43 43 43 42 42 42 41 40 40 40 39 39
62 62 61 60 60 60 59 58 56 55 54 53 52 51 50 50 49 48 47 46 46 46 46 46 45 45 44 43 44 43 43 42 42 42 41 41 40 40 40 39 39 39
62 62 61 60 60 60 59 57 55 54 53 52 51 50 50 49 49 47 46 46 46 45 45 45 45 44 43 44 44 43 42 42 41 41 41 40 41 40 45 40 41 40
62 61 61 60 60 59 58 56 55 54 53 52 51 50 49 49 48 47 46 45 45 45 45 45 44 44 43 43 43 43 43 42 42 41 41 40 41 43 42 42 41 40
62 61 61 60 59 58 57 56 54 54 53 52 51 50 49 48 47 46 46 45 45 45 45 45 44 44 43 42 42 43 42 41 41 41 41 41 42 43 42 42 41 42
62 61 60 60 59 57 56 55 54 53 53 52 51 50 49 48 47 46 45 45 45 45 45 45 44 44 42 42 42 42 42 41 41 41 41 41 42 43 43 41 40 39
61 61 60 59 58 57 56 54 54 53 53 52 51 50 49 48 47 46 45 44 44 44 45 45 44 44 42 42 42 41 41 41 41 41 41 41 42 42 39 37 36 35
61 60 59 58 57 56 55 54 53 53 52 51 50 50 49 48 47 46 44 44 44 44 44 45 45 44 45 45 44 42 41 41 42 41 41 42 42 38 35 34 34 35
60 60 59 57 56 56 55 54 53 52 51 51 50 49 48 48 46 45 44 43 43 43 44 44 44 43 44 41 40 43 42 42 41 41 41 42 39 35 33 34 37 40
60 59 58 57 56 55 54 54 53 52 51 50 49 48 48 47 46 45 44 43 43 43 43 44 44 45 40 40 40 40 43 42 41 41 42 41 38 34 34 34 34 36
60 59 58 56 55 55 54 53 52 51 50 50 49 48 47 46 46 45 44 44 43 42 43 43 43 42 40 40 39 40 40 42 41 42 42 41 38 34 32 32 32 34
59 58 57 56 55 54 54 53 52 51 50 50 49 48 47 46 46 45 44 44 43 42 42 43 42 42 39 39 39 39 39 41 41 42 42 42 41 36 33 30 28 29
59 58 57 56 55 54 53 52 52 51 50 49 48 48 46 46 45 44 44 44 43 42 42 42 43 41 39 39 39 39 39 41 42 43 44 45 42 40 38 36 35 35
58 57 56 55 54 54 53 52 51 50 49 49 48 48 47 46 45 45 45 44 43 42 42 41 42 39 38 39 39 39 39 44 43 43 43 43 42 39 39 38 35 32
58 57 56 55 54 53 52 52 51 50 49 49 48 47 46 45 45 45 45 44 43 42 41 41 41 39 38 39 39 39 42 44 44 43 43 44 43 41 39 38 36 33
57 56 55 55 54 53 52 52 51 50 49 49 47 46 46 45 46 45 46 45 43 42 41 41 40 40 39 39 39 41 43 45 45 44 44 43 43 44 43 40 39 43
57 57 55 55 54 54 53 52 51 50 49 48 47 46 46 46 46 45 46 46 44 43 46 41 40 40 39 39 40 40 43 45 45 44 44 43 43 44 45 43 41 46
58 57 55 55 54 54 53 52 51 50 49 48 47 46 46 46 46 45 46 46 45 43 43 41 40 40 41 39 40 40 42 44 44 43 43 43 43 44 44 44 43 44

ECMWFNIL_sfc_dewp_135.txt.gz
Dewpoint
63 63 63 63 63 62 61 60 59 57 56 55 54 53 53 53 53 53 53 53 53 53 53 52 52 51 51 50 50 49 48 47 47 46 45 45 44 43 43 42 41 41
63 63 63 63 62 62 61 60 59 58 57 56 54 53 53 53 52 52 52 52 53 52 52 52 52 51 50 49 48 47 47 47 46 48 45 44 43 43 42 42 42 41
63 62 62 62 62 61 60 59 58 57 57 55 54 53 54 53 52 51 51 51 51 51 51 51 50 50 50 48 48 48 46 46 45 45 45 43 43 42 42 42 41 40
62 62 62 62 61 60 60 59 58 57 56 54 53 54 54 53 51 50 50 53 50 50 50 51 49 49 49 48 47 46 46 45 45 44 43 43 43 42 41 41 42 41
62 62 62 62 61 60 59 58 58 56 55 55 54 54 54 53 50 49 49 49 49 49 49 50 49 48 48 47 46 45 46 45 44 43 42 41 41 41 41 41 40 39
62 62 62 61 61 60 59 59 58 57 55 54 53 54 53 51 49 48 48 47 48 48 48 48 48 48 47 46 46 46 46 44 43 42 41 41 41 41 41 40 39 38
62 62 62 61 61 60 59 59 58 57 55 54 53 53 52 51 49 48 47 47 47 48 47 47 46 46 46 46 45 45 44 43 43 42 41 41 42 40 40 39 39 38
62 62 62 61 61 60 60 59 58 57 55 54 53 53 52 50 49 48 47 47 46 46 46 46 46 46 46 45 45 44 44 44 42 41 41 41 40 39 40 40 39 38
62 62 62 61 61 60 60 59 58 57 55 54 53 52 51 50 49 48 47 47 46 46 45 45 45 45 45 45 44 44 43 43 43 41 41 40 39 39 40 40 39 40
62 62 62 61 61 60 60 59 58 56 55 54 53 52 51 50 49 48 47 47 46 45 45 45 45 45 45 44 44 44 43 42 42 41 41 40 39 39 39 39 38 38
62 62 61 61 61 60 60 59 57 56 55 54 53 51 50 50 49 48 47 46 46 45 45 45 45 45 44 44 44 44 43 42 42 41 41 40 40 40 43 38 38 37
62 62 61 61 61 60 60 58 57 56 55 54 52 51 50 49 48 47 47 46 46 45 45 45 44 44 44 43 44 43 43 42 42 42 41 40 40 41 41 39 39 39
62 62 61 61 60 60 59 58 56 55 54 53 52 51 50 49 48 47 48 46 46 45 45 45 44 44 43 43 43 43 42 42 42 41 41 41 41 41 40 40 40 40
62 62 61 61 61 60 59 57 56 55 54 53 52 50 50 49 48 47 47 46 46 45 45 45 44 44 43 43 43 43 42 41 41 41 40 41 41 41 41 41 41 41
62 62 62 61 60 59 58 57 56 55 54 53 51 51 50 49 48 47 46 45 45 45 45 45 44 44 43 43 43 42 42 41 41 41 40 41 41 41 40 39 39 39
62 62 61 61 60 59 58 57 56 55 53 52 51 51 50 49 48 47 46 45 45 45 45 45 44 44 46 45 45 43 42 41 42 41 41 42 42 39 37 37 36 36
62 62 61 60 59 58 57 56 55 54 53 52 51 50 50 49 47 46 45 45 44 44 44 45 45 44 44 41 41 43 42 41 41 41 42 42 39 36 35 36 38 41
62 61 61 60 59 58 57 56 55 54 53 52 51 50 50 49 47 46 45 45 44 44 44 45 44 45 41 40 40 41 43 42 41 42 42 41 39 37 36 38 39 39
61 61 60 59 59 57 56 55 54 54 53 52 51 50 49 48 47 46 45 44 44 44 44 44 44 43 40 40 40 40 41 44 43 42 41 38 36 37 38 40 38 37
61 60 60 59 58 57 56 55 54 53 53 52 51 50 49 48 47 46 45 44 44 43 44 44 44 43 40 40 39 39 39 42 43 42 41 37 37 40 40 39 39 37
61 60 59 58 57 56 55 54 54 53 52 51 50 49 48 47 46 45 44 44 44 43 43 43 44 42 39 39 39 39 39 42 43 43 40 38 38 39 38 37 36 34
60 60 59 58 57 56 55 54 53 53 52 51 50 49 48 48 47 46 45 44 43 43 43 43 43 40 39 39 39 39 39 45 42 42 42 40 40 39 36 35 33 30
60 59 58 57 56 55 55 54 53 52 52 51 50 49 48 47 46 46 45 44 43 43 42 42 43 40 38 39 39 38 40 43 43 43 42 41 39 38 36 34 33 31
60 59 58 57 56 55 54 54 53 53 51 50 50 48 47 47 46 46 45 44 43 43 42 42 42 41 38 38 38 38 42 43 43 42 42 41 40 39 38 36 35 40
60 59 58 57 56 55 55 54 53 52 51 50 50 49 48 47 46 45 46 45 44 43 46 42 41 41 38 38 38 38 42 42 42 41 42 42 41 40 39 39 38 43
59 58 58 57 56 55 55 54 53 52 51 50 50 49 48 47 46 45 45 46 46 44 44 42 41 41 40 38 38 38 41 43 42 41 41 41 41 40 41 41 40 39